Radiation Dose measured at exhaust stack monitor of Fukushima Daiichi Nuclear Power Station
Date,Time,Unit 5 6 shared exhaust cylinders,Wind Direction,Wind Velocity(m/s)
2023/08/02,00:00,3.7,north-northeast,1.4
2023/08/02,00:10,3.6,northwest,1.2
2023/08/02,00:20,3.6,northwest,2.3
2023/08/02,00:30,3.7,northwest,1.7
2023/08/02,00:40,3.7,west-northwest,1.2
2023/08/02,00:50,3.7,west-northwest,0.9
2023/08/02,01:00,3.7,southwest,0.9
2023/08/02,01:10,3.8,south,0.9
2023/08/02,01:20,3.7,southeast,1.5
2023/08/02,01:30,3.7,south-southeast,1.7
2023/08/02,01:40,3.4,south-southeast,4.1
2023/08/02,01:50,3.7,south-southeast,4.2
2023/08/02,02:00,3.7,south,4.4
2023/08/02,02:10,3.7,south,3.9
2023/08/02,02:20,3.7,south,2.3
2023/08/02,02:30,3.6,south,2.0
2023/08/02,02:40,3.7,south-southeast,1.4
2023/08/02,02:50,3.6,south-southwest,1.9
2023/08/02,03:00,3.6,south-southwest,2.0
2023/08/02,03:10,3.7,south-southwest,2.3
2023/08/02,03:20,3.5,south-southwest,1.7
2023/08/02,03:30,3.5,-,CALM
2023/08/02,03:40,3.6,east,1.1
2023/08/02,03:50,3.7,north-northeast,0.8
2023/08/02,04:00,3.6,north-northeast,1.2
2023/08/02,04:10,3.6,north,1.7
2023/08/02,04:20,3.6,north,1.1
2023/08/02,04:30,3.6,north,0.9
2023/08/02,04:40,3.8,-,CALM
2023/08/02,04:50,3.5,-,CALM
2023/08/02,05:00,3.5,west,0.9
2023/08/02,05:10,3.6,northwest,1.1
2023/08/02,05:20,3.5,west-northwest,1.1
2023/08/02,05:30,3.6,west-northwest,1.5
2023/08/02,05:40,3.7,west-northwest,2.2
2023/08/02,05:50,3.5,west-northwest,2.8
2023/08/02,06:00,3.5,west,2.3
2023/08/02,06:10,3.7,west,2.0
2023/08/02,06:20,3.6,west-northwest,2.5
2023/08/02,06:30,3.5,west-northwest,2.6
2023/08/02,06:40,3.7,west-northwest,2.5
2023/08/02,06:50,3.6,west,1.2
2023/08/02,07:00,3.6,west-northwest,1.5
2023/08/02,07:10,3.7,west-northwest,1.5
2023/08/02,07:20,3.7,northwest,1.4
2023/08/02,07:30,3.6,north-northwest,0.9
2023/08/02,07:40,3.6,north,0.6
2023/08/02,07:50,3.8,north,0.9
2023/08/02,08:00,3.8,north-northeast,0.9
2023/08/02,08:10,3.7,north-northeast,1.2
2023/08/02,08:20,3.7,east,0.9
2023/08/02,08:30,3.6,east,1.1
2023/08/02,08:40,3.6,northeast,1.5
2023/08/02,08:50,3.6,east,1.4
2023/08/02,09:00,3.6,east,2.3
2023/08/02,09:10,3.6,east-southeast,1.1
2023/08/02,09:20,3.5,east-southeast,2.0
2023/08/02,09:30,3.5,east-southeast,2.3
2023/08/02,09:40,3.5,southeast,3.5
2023/08/02,09:50,3.7,east-southeast,3.8
2023/08/02,10:00,3.6,southeast,4.3
2023/08/02,10:10,3.5,southeast,4.4
2023/08/02,10:20,3.6,south-southeast,4.6
2023/08/02,10:30,3.5,south-southeast,4.9
2023/08/02,10:40,3.7,south-southeast,5.2
2023/08/02,10:50,3.5,south-southeast,6.0
2023/08/02,11:00,3.6,south-southeast,6.1
2023/08/02,11:10,3.7,south-southeast,6.5
2023/08/02,11:20,3.6,south-southeast,6.3
2023/08/02,11:30,3.5,south-southeast,7.2
2023/08/02,11:40,3.6,south-southeast,6.3
2023/08/02,11:50,3.8,south-southeast,6.6
2023/08/02,12:00,3.6,south-southeast,5.8
2023/08/02,12:10,3.6,south-southeast,5.8
2023/08/02,12:20,3.7,south-southeast,5.7
2023/08/02,12:30,3.8,south-southeast,6.3
2023/08/02,12:40,3.5,south-southeast,6.5
2023/08/02,12:50,3.6,south-southeast,7.2
2023/08/02,13:00,3.5,south-southeast,7.6
2023/08/02,13:10,3.7,south,7.0
2023/08/02,13:20,3.6,south,6.7
2023/08/02,13:30,3.7,south,6.3
2023/08/02,13:40,3.5,south-southeast,6.5
2023/08/02,13:50,3.6,south,6.2
2023/08/02,14:00,3.6,south-southeast,5.9
2023/08/02,14:10,3.6,south-southeast,7.4
2023/08/02,14:20,3.7,south-southeast,8.8
2023/08/02,14:30,3.7,south-southeast,10.2
2023/08/02,14:40,3.7,south,10.5
2023/08/02,14:50,3.7,south-southeast,9.0
2023/08/02,15:00,3.6,south,9.6
2023/08/02,15:10,3.7,south,8.8
2023/08/02,15:20,3.6,south,7.4
2023/08/02,15:30,3.6,south,6.5
2023/08/02,15:40,3.8,south,6.2
2023/08/02,15:50,3.7,south,6.2
2023/08/02,16:00,3.8,south,6.8
2023/08/02,16:10,3.8,south,7.5
2023/08/02,16:20,3.6,south-southeast,7.3
2023/08/02,16:30,3.7,south,8.0
2023/08/02,16:40,3.5,south,8.9
2023/08/02,16:50,3.7,south,8.4
2023/08/02,17:00,3.7,south,9.2
2023/08/02,17:10,3.8,south,8.5
2023/08/02,17:20,3.5,south,9.4
2023/08/02,17:30,3.6,south,8.9
2023/08/02,17:40,3.6,south,7.0
2023/08/02,17:50,3.7,west-southwest,1.7
2023/08/02,18:00,3.6,west-southwest,1.9
2023/08/02,18:10,3.7,southwest,1.4
2023/08/02,18:20,3.5,north-northwest,2.0
2023/08/02,18:30,3.6,north-northwest,1.4
2023/08/02,18:40,3.7,north-northeast,0.9
2023/08/02,18:50,3.7,east-southeast,1.4
2023/08/02,19:00,3.6,south-southwest,0.9
2023/08/02,19:10,3.7,south-southeast,0.6
2023/08/02,19:20,3.6,south-southeast,1.1
2023/08/02,19:30,3.6,south,1.2
2023/08/02,19:40,3.5,south,2.3
2023/08/02,19:50,3.7,south-southeast,3.6
2023/08/02,20:00,3.7,south,2.6
2023/08/02,20:10,3.7,south,4.0
2023/08/02,20:20,3.5,south-southwest,3.4
2023/08/02,20:30,3.6,south,2.6
2023/08/02,20:40,3.6,south,2.6
2023/08/02,20:50,3.6,south,2.8
2023/08/02,21:00,3.6,south,3.2
2023/08/02,21:10,3.6,south,3.4
2023/08/02,21:20,3.6,south,3.2
2023/08/02,21:30,3.7,south,3.5
2023/08/02,21:40,3.6,south,3.5
2023/08/02,21:50,3.7,south,4.1
2023/08/02,22:00,3.6,south,3.9
2023/08/02,22:10,3.7,south,4.3
2023/08/02,22:20,3.7,south-southwest,3.1
2023/08/02,22:30,3.5,south-southwest,2.6
2023/08/02,22:40,3.6,south-southwest,3.1
2023/08/02,22:50,3.7,south,3.6
2023/08/02,23:00,3.5,south-southwest,4.3
2023/08/02,23:10,3.7,south,3.4
2023/08/02,23:20,3.6,south,4.0
2023/08/02,23:30,3.6,south-southwest,3.9
2023/08/02,23:40,3.7,south-southwest,3.3
2023/08/02,23:50,3.7,south-southwest,3.8
